Wind_Speed
24 24 24 25 25 26 26 26 26 26 25 25 24 23 22 22 21 22 21 21 21 24 26 29 30 30 29 27 26 25 24 23 23 22 21 20 19 18 16 14 13 11 9
23 24 25 26 27 27 27 27 27 26 26 26 26 26 25 24 23 23 23 22 22 24 26 29 31 33 32 31 30 28 27 26 25 24 23 22 21 20 19 17 15 13 11
22 23 24 24 25 26 28 28 28 27 28 28 27 27 27 26 26 25 25 25 24 24 26 28 31 35 36 34 33 32 30 29 28 27 26 25 23 22 21 19 18 16 14
22 23 24 24 25 26 27 27 28 28 28 28 28 28 28 28 28 28 27 27 27 27 27 28 30 33 37 37 36 36 34 32 31 30 29 28 26 25 23 21 20 19 17
23 24 24 25 25 26 26 27 28 28 29 29 29 29 30 30 30 30 29 30 30 29 29 30 31 32 35 38 39 39 38 36 35 33 32 30 29 27 26 24 23 21 20
23 23 24 24 25 26 26 27 27 28 28 28 29 29 30 31 31 31 31 31 31 32 31 32 32 33 35 37 39 41 41 40 39 37 35 33 31 30 28 27 25 24 23
23 23 24 23 24 25 25 26 26 27 27 27 28 29 30 31 31 32 32 33 33 33 33 33 34 34 35 37 40 42 43 43 42 40 38 36 34 32 30 29 28 26 25
23 23 23 23 23 24 24 25 25 26 27 27 27 28 29 30 30 32 33 34 34 34 35 35 35 36 37 37 40 42 43 45 45 44 42 39 38 35 33 31 30 29 27
22 22 22 23 23 23 24 24 24 25 26 26 27 28 29 30 30 31 33 34 35 35 36 37 37 37 38 38 40 42 44 45 46 46 44 42 40 39 36 34 32 31 29
21 21 22 22 23 23 24 25 25 26 27 27 28 29 29 30 31 32 33 34 35 36 37 37 38 39 39 39 40 42 43 45 46 47 46 45 43 41 39 36 34 33 31
20 20 21 22 23 24 25 26 26 27 28 29 30 30 31 32 33 34 35 35 36 37 38 38 38 39 40 40 41 43 44 45 46 47 47 46 45 43 41 39 37 35 33
21 21 22 23 24 25 26 27 28 29 30 31 32 33 34 35 36 36 37 38 39 39 38 39 38 39 39 41 42 43 45 46 46 47 47 46 45 44 43 41 39 36 35
23 23 24 25 25 26 27 28 29 30 31 33 34 35 36 38 38 39 39 39 40 41 40 40 40 40 40 41 42 44 45 47 47 48 48 48 46 45 44 43 41 38 37
25 26 27 27 28 28 29 30 31 32 33 34 35 36 38 39 40 41 41 42 42 43 43 42 41 42 42 42 42 44 45 47 48 48 49 48 47 46 45 44 42 41 39
27 28 29 30 31 31 32 32 33 33 34 35 36 37 38 39 41 42 43 43 44 44 45 44 42 42 43 43 43 44 45 46 48 49 48 48 47 47 46 45 43 42 40
30 31 32 33 34 34 34 34 35 35 35 36 37 37 38 40 41 41 43 44 44 45 45 46 45 44 43 43 44 44 45 47 48 48 48 48 47 47 46 45 44 42 40
32 34 35 36 36 36 36 36 36 36 36 36 37 37 38 40 41 42 42 44 45 45 45 45 46 45 44 43 45 44 45 45 46 47 49 48 47 47 47 45 44 43 41
35 36 37 38 38 38 37 37 37 36 36 36 37 37 37 38 39 41 42 43 44 45 45 45 46 46 45 44 44 44 45 46 46 45 47 49 49 48 47 46 45 44 42
38 39 40 40 39 39 39 39 38 37 36 36 36 36 36 37 38 39 40 41 43 44 45 46 47 48 47 46 45 45 45 46 46 47 47 48 49 49 48 47 46 44 43
41 42 42 41 40 40 40 39 37 36 35 35 35 34 35 36 37 38 39 40 42 43 45 46 47 48 48 47 46 45 45 44 45 46 47 49 49 48 47 47 46 45 44
43 44 43 42 41 40 39 38 37 36 35 35 34 34 34 35 36 37 39 40 41 42 44 46 47 48 49 48 47 46 45 43 44 44 46 48 48 48 49 48 47 45 44
45 45 43 42 41 40 39 38 37 35 34 34 34 35 35 35 35 37 38 40 42 42 43 45 47 48 49 49 47 46 45 45 43 43 45 46 47 49 49 48 47 46 45
46 45 43 42 41 40 38 36 35 34 34 34 34 34 34 34 35 36 38 39 41 43 44 45 47 48 49 51 50 48 46 46 44 43 44 45 46 47 48 48 48 48 47
46 45 43 42 40 39 37 35 35 34 33 33 33 33 33 34 34 35 37 39 41 43 44 46 47 48 50 51 51 51 50 47 47 44 43 43 45 46 48 49 49 48 47
46 45 43 41 39 37 36 34 33 32 32 31 31 31 31 32 34 35 36 38 39 42 45 47 48 49 50 51 52 52 51 50 48 47 45 42 43 45 47 49 50 48 47
46 44 41 39 37 35 34 33 32 31 30 30 30 30 30 31 32 33 35 36 38 40 43 46 48 49 51 52 52 52 52 51 50 48 47 45 43 44 46 48 50 50 48
Wind_Direction
282 280 279 279 277 275 273 276 277 275 274 274 272 270 267 265 265 264 264 257 249 240 233 230 228 225 224 220 218 217 217 216 213 212 212 213 214 215 215 214 215 215 215
283 281 280 280 277 275 274 276 277 275 274 273 270 268 266 264 263 261 260 254 249 246 241 235 230 227 225 224 222 220 219 219 217 216 215 216 217 219 220 221 221 221 220
288 283 283 282 281 278 276 275 274 273 273 272 270 268 265 262 261 259 255 252 249 249 246 241 234 229 226 226 224 222 221 221 221 219 218 218 219 220 222 224 224 223 222
289 287 285 283 281 279 277 276 274 273 271 270 269 267 265 262 260 258 255 250 247 247 246 241 237 232 229 227 226 224 223 223 223 222 221 220 221 222 223 224 225 224 224
291 289 287 285 282 279 277 275 274 272 271 269 268 265 263 262 259 257 254 251 248 246 246 242 239 236 232 229 228 226 224 224 224 223 223 223 223 223 224 225 226 226 225
296 292 290 287 283 280 278 276 275 273 271 269 267 265 263 260 258 255 253 252 250 247 245 243 241 239 236 234 231 228 227 225 224 223 224 225 225 224 225 227 228 228 228
301 298 295 291 287 284 281 278 276 273 272 270 268 266 263 260 258 255 253 251 250 248 246 244 242 240 239 236 233 231 229 226 225 224 224 225 225 225 226 228 229 229 230
302 300 298 295 292 289 286 283 279 276 273 271 269 266 263 260 258 256 253 251 250 248 246 244 243 241 241 239 235 233 230 228 226 225 225 225 226 226 228 229 229 230 231
304 302 299 297 294 291 288 286 283 280 277 273 269 267 264 262 260 256 253 252 249 248 246 244 243 243 241 241 237 233 231 229 227 226 225 225 225 226 228 229 230 230 230
307 304 302 299 296 294 291 289 287 284 280 276 272 268 265 262 259 257 254 252 250 248 247 245 244 242 241 240 237 233 231 231 228 227 225 225 225 226 227 227 229 230 229
310 308 305 302 299 297 294 292 289 286 283 280 275 271 267 263 260 257 256 254 251 249 247 245 245 243 241 239 237 235 231 230 228 228 227 226 226 227 227 229 228 228 229
311 310 308 306 302 300 297 295 292 289 286 282 278 273 269 264 260 257 255 254 252 250 248 246 245 242 239 238 237 234 231 229 228 228 227 227 227 228 228 229 228 227 228
313 312 311 309 306 302 300 297 294 291 287 283 279 275 270 266 262 258 255 252 251 250 248 246 244 241 239 237 235 233 232 229 228 227 226 227 227 227 227 228 228 228 229
315 314 313 311 308 304 302 299 296 292 289 285 280 276 271 267 263 259 255 251 249 248 247 246 244 241 238 235 234 233 231 229 227 226 226 226 228 227 227 227 227 227 229
316 315 313 311 309 306 304 301 297 293 289 285 281 277 273 268 263 259 255 252 249 247 246 245 244 241 238 235 234 233 231 228 227 227 225 226 227 228 227 227 228 228 229
317 316 314 312 310 307 304 302 298 295 290 286 282 278 274 269 264 260 256 252 249 246 244 244 242 241 239 236 234 232 230 229 227 226 226 226 226 227 226 227 228 228 228
318 317 315 313 310 308 305 302 299 296 291 287 283 279 274 269 264 260 256 252 249 246 243 241 241 239 238 236 234 232 230 229 227 225 225 225 225 225 225 226 227 228 228
319 317 315 313 310 308 305 303 300 297 293 288 284 279 274 269 264 260 256 252 249 246 242 239 238 237 236 235 233 233 231 229 227 225 224 224 224 224 224 224 226 228 228
319 317 315 313 311 308 305 303 300 297 294 290 285 280 275 270 265 261 257 253 249 246 242 239 237 236 235 233 232 232 231 229 228 225 223 223 223 223 223 223 225 226 226
319 317 316 313 310 308 305 303 300 297 294 290 286 281 276 271 266 262 258 254 250 246 242 239 236 235 235 234 232 232 231 229 228 227 225 223 221 221 222 223 223 223 223
319 318 316 313 311 308 306 303 300 297 294 290 286 282 277 272 267 262 258 254 250 247 243 239 236 234 234 233 232 231 230 228 228 227 224 222 220 220 220 221 221 221 222
320 318 316 314 312 310 307 304 302 299 295 292 288 284 279 275 270 264 259 254 250 246 243 239 236 234 233 233 231 230 229 228 227 226 224 222 220 219 219 219 220 220 220
321 319 317 315 313 310 308 305 303 300 297 294 290 285 281 277 272 266 260 255 251 246 243 240 236 234 233 232 231 229 227 227 226 225 225 223 220 218 218 218 218 218 217
322 319 317 315 313 311 309 307 304 301 299 296 292 287 283 279 274 268 262 256 251 247 243 240 237 234 233 232 231 230 227 226 226 225 224 223 221 219 217 216 214 214 213
323 320 318 316 314 312 310 309 307 304 300 297 294 290 286 281 277 271 264 258 253 248 244 241 237 235 232 231 230 230 228 227 226 226 225 223 221 219 217 214 212 212 212
324 322 320 318 316 314 312 311 309 306 302 299 297 293 290 285 280 274 267 259 254 250 246 241 237 235 233 231 229 229 228 227 226 226 226 225 222 220 217 214 213 211 212
Height
5869 5868 5866 5866 5866 5866 5865 5865 5865 5866 5866 5866 5867 5867 5868 5869 5869 5870 5870 5871 5872 5874 5876 5879 5881 5884 5887 5890 5893 5895 5898 5901 5903 5905 5908 5910 5912 5914 5916 5918 5919 5921 5922
5863 5863 5862 5861 5860 5859 5859 5859 5859 5860 5860 5860 5861 5861 5862 5863 5863 5864 5865 5866 5867 5869 5871 5873 5875 5878 5881 5885 5888 5891 5894 5897 5899 5902 5904 5907 5909 5912 5914 5916 5918 5919 5921
5858 5857 5856 5855 5854 5853 5853 5853 5853 5853 5853 5854 5854 5854 5855 5856 5857 5858 5858 5860 5861 5863 5864 5866 5869 5872 5875 5879 5882 5886 5889 5892 5895 5898 5901 5903 5906 5908 5911 5913 5915 5917 5919
5853 5851 5850 5849 5848 5847 5846 5846 5846 5846 5846 5846 5847 5847 5848 5848 5850 5851 5852 5853 5855 5856 5858 5860 5862 5865 5868 5872 5875 5879 5883 5886 5890 5893 5896 5899 5902 5905 5907 5910 5912 5915 5917
5847 5845 5844 5842 5841 5840 5840 5839 5839 5839 5839 5839 5839 5840 5840 5841 5842 5843 5845 5846 5847 5849 5851 5853 5855 5858 5861 5865 5869 5873 5876 5880 5884 5888 5891 5894 5898 5901 5903 5906 5909 5911 5914
5841 5839 5837 5836 5834 5834 5833 5832 5832 5831 5831 5831 5831 5832 5833 5833 5834 5835 5837 5838 5840 5842 5844 5846 5848 5851 5854 5857 5861 5865 5869 5873 5877 5881 5885 5889 5893 5896 5899 5902 5905 5908 5910
5835 5833 5831 5830 5828 5827 5826 5826 5825 5824 5824 5824 5824 5824 5825 5825 5826 5827 5829 5830 5832 5834 5836 5838 5841 5843 5846 5849 5853 5857 5861 5865 5870 5875 5879 5883 5887 5891 5894 5897 5901 5904 5907
5829 5827 5825 5824 5822 5821 5820 5819 5818 5817 5817 5817 5817 5817 5817 5818 5818 5819 5820 5822 5823 5825 5827 5830 5833 5835 5838 5840 5844 5848 5853 5857 5862 5867 5871 5876 5881 5885 5888 5892 5895 5899 5902
5824 5822 5820 5818 5816 5815 5813 5812 5811 5810 5809 5809 5809 5809 5809 5809 5810 5811 5812 5813 5814 5817 5819 5821 5824 5827 5829 5832 5836 5839 5844 5849 5854 5859 5864 5869 5873 5878 5882 5886 5890 5893 5897
5819 5817 5815 5813 5810 5809 5807 5805 5804 5803 5802 5801 5801 5801 5801 5801 5801 5802 5803 5804 5805 5807 5810 5812 5815 5817 5820 5823 5826 5830 5835 5840 5845 5850 5855 5861 5866 5871 5875 5879 5883 5888 5891
5815 5812 5810 5807 5805 5802 5800 5798 5797 5795 5794 5793 5792 5792 5792 5792 5792 5793 5794 5795 5796 5798 5800 5803 5805 5808 5810 5813 5817 5821 5826 5830 5835 5841 5847 5852 5857 5863 5867 5872 5877 5881 5885
5810 5807 5804 5801 5799 5796 5793 5791 5789 5787 5785 5784 5782 5782 5782 5782 5783 5784 5785 5785 5786 5788 5790 5793 5795 5798 5800 5804 5807 5811 5816 5821 5826 5832 5838 5843 5849 5854 5859 5864 5869 5874 5879
5804 5801 5798 5795 5792 5789 5786 5783 5780 5778 5776 5774 5772 5771 5771 5771 5772 5773 5774 5775 5776 5777 5780 5782 5785 5788 5790 5794 5797 5801 5806 5811 5817 5823 5829 5835 5840 5845 5851 5856 5862 5867 5872
5798 5795 5791 5788 5784 5781 5778 5774 5771 5769 5766 5764 5762 5760 5759 5759 5759 5760 5762 5764 5765 5767 5769 5771 5774 5777 5780 5784 5788 5792 5797 5802 5808 5813 5819 5826 5831 5837 5843 5848 5854 5859 5864
5792 5788 5784 5780 5776 5772 5768 5765 5761 5758 5755 5753 5751 5749 5748 5747 5747 5748 5749 5751 5754 5756 5758 5760 5763 5766 5770 5773 5778 5782 5787 5792 5798 5804 5810 5817 5823 5829 5835 5840 5846 5851 5857
5785 5780 5776 5771 5767 5762 5758 5754 5750 5747 5744 5741 5739 5737 5735 5734 5734 5735 5736 5738 5740 5743 5746 5749 5752 5755 5759 5764 5768 5772 5777 5782 5788 5794 5801 5807 5814 5820 5826 5832 5838 5843 5849
5777 5772 5767 5762 5757 5752 5748 5743 5739 5736 5732 5729 5726 5724 5722 5721 5721 5722 5723 5725 5727 5730 5734 5737 5740 5744 5749 5753 5758 5762 5767 5772 5778 5784 5791 5798 5804 5811 5817 5823 5829 5836 5841
5768 5763 5758 5752 5747 5742 5737 5732 5728 5724 5720 5716 5713 5711 5710 5708 5708 5709 5710 5712 5714 5717 5721 5725 5729 5733 5738 5743 5747 5752 5757 5762 5767 5774 5780 5787 5794 5801 5808 5815 5821 5827 5833
5760 5754 5748 5742 5736 5731 5725 5721 5716 5712 5708 5704 5701 5699 5697 5696 5696 5696 5697 5699 5701 5705 5708 5713 5717 5721 5727 5732 5737 5742 5747 5752 5757 5763 5770 5777 5784 5792 5799 5805 5812 5818 5825
5751 5744 5738 5731 5725 5720 5714 5709 5704 5700 5696 5692 5689 5687 5685 5684 5684 5684 5685 5686 5689 5692 5696 5700 5705 5710 5715 5720 5726 5731 5737 5742 5748 5754 5760 5767 5774 5781 5789 5796 5803 5809 5816
5741 5734 5728 5721 5714 5708 5703 5697 5693 5688 5684 5681 5678 5675 5673 5672 5672 5672 5673 5674 5676 5679 5683 5688 5693 5698 5703 5709 5715 5721 5727 5732 5738 5744 5750 5757 5764 5771 5778 5786 5793 5800 5807
5732 5724 5717 5710 5703 5697 5692 5686 5681 5677 5673 5669 5666 5663 5661 5660 5659 5660 5660 5662 5664 5667 5671 5675 5681 5686 5692 5698 5704 5710 5716 5722 5729 5735 5740 5747 5754 5761 5768 5776 5784 5791 5798
5722 5714 5707 5700 5693 5686 5681 5675 5670 5666 5662 5658 5654 5651 5649 5648 5647 5647 5647 5649 5651 5654 5658 5662 5668 5673 5679 5686 5693 5700 5706 5712 5718 5724 5730 5737 5744 5751 5758 5766 5774 5781 5789
5712 5704 5696 5689 5683 5676 5670 5665 5660 5655 5651 5647 5643 5640 5638 5636 5634 5634 5635 5636 5638 5641 5645 5649 5656 5661 5666 5673 5680 5687 5694 5701 5708 5714 5721 5727 5734 5741 5748 5756 5764 5772 5779
5702 5694 5686 5679 5673 5666 5661 5655 5650 5645 5641 5637 5633 5630 5627 5625 5623 5622 5622 5623 5625 5628 5631 5636 5641 5647 5654 5661 5668 5676 5684 5691 5698 5704 5711 5718 5724 5731 5739 5746 5754 5762 5770
5692 5684 5677 5670 5663 5657 5651 5646 5641 5636 5632 5628 5624 5620 5617 5614 5612 5610 5609 5610 5612 5614 5617 5622 5628 5634 5641 5648 5656 5664 5672 5680 5687 5694 5701 5709 5715 5722 5729 5737 5745 5753 5762